Hovedside
METAR-TAF:

METAR-TAF

Lufthavner :

Lycksele, Sverige

Lycksele lufthavn

breddegrad: 64-32-51N, lengdegrad: 018-43-03E, høyde over havet: 211 m

Gjeldene værobservasjon

Denne rapporten ble laget for 11 minutter siden, klokken 22:20 UTC
Flau vind
Temperatur 12°C
Luftfuktighet 88%
Trykk 1017 hPa
Sikt 10 km eller mer

METAR: ESNL 242220Z AUTO 00000KT 9999 BKN088/// 12/10 Q1017

Tid: 00:31 (22:31 UTC)


TAF: fraværende

Værobservasjoner og værvarsel for over 4000 flyplasser (METAR- og TAF-rapporter).

Tilgjengelige stasjoner er representert av de røde og gule prikkene på kartet.

Hold musepekeren over prikken for å se navnet på stasjonen.

Klikk så for å se værobservasjoner og -varsler.

For å forandre kartet kan du klikke på den grønne knappen med svart kryss for å zoome inn, på den grønne knappen med strek for å zoome ut, eller på de grønne pilene for å se tilstøtende kart.


METAR-TAF: